Previsão horária em Plosodrza

Hoje, 3 Março, Quarta-feira

Tempo Temperatura Precipitação Vento Pressão Humidade
00:00 +1°C° 0 mm 2 m/s 757 mmHg 93%
01:00 +1°C° 0 mm 2 m/s 757 mmHg 93%
02:00 -1°C° 0 mm 2 m/s 757 mmHg 94%
03:00 -1°C° 0 mm 2 m/s 757 mmHg 93%
04:00 +1°C° 0 mm 1 m/s 757 mmHg 93%
05:00 +1°C° 0 mm 1 m/s 757 mmHg 92%
06:00 +1°C° 0 mm 1 m/s 757 mmHg 90%
07:00 +1°C° 0 mm 1 m/s 757 mmHg 88%
08:00 +1°C° 0 mm 1 m/s 757 mmHg 87%
09:00 +3°C° 0 mm 1 m/s 756 mmHg 79%
10:00 +4°C° 0 mm 1 m/s 756 mmHg 71%
11:00 +6°C° 0 mm 1 m/s 756 mmHg 63%
12:00 +6°C° 0 mm 2 m/s 755 mmHg 60%
13:00 +7°C° 0 mm 2 m/s 755 mmHg 58%
14:00 +8°C° 0 mm 3 m/s 754 mmHg 56%
15:00 +8°C° 0 mm 3 m/s 754 mmHg 59%
16:00 +8°C° 0 mm 3 m/s 753 mmHg 62%
17:00 +8°C° 0 mm 3 m/s 752 mmHg 65%
18:00 +7°C° 0 mm 3 m/s 751 mmHg 70%
19:00 +4°C° 0 mm 3 m/s 751 mmHg 74%
20:00 +3°C° 0 mm 3 m/s 750 mmHg 79%
21:00 +3°C° 0 mm 3 m/s 750 mmHg 80%
22:00 +2°C° 0 mm 3 m/s 749 mmHg 81%
23:00 +2°C° 0 mm 3 m/s 748 mmHg 82%

Amanhã, 4 Março, Quinta-feira

Tempo Temperatura Precipitação Vento Pressão Humidade
00:00 +2°C° 0 mm 3 m/s 748 mmHg 84%
01:00 +2°C° 0 mm 3 m/s 747 mmHg 85%
02:00 +2°C° 0 mm 3 m/s 747 mmHg 86%
03:00 +1°C° 0 mm 4 m/s 746 mmHg 87%
04:00 +1°C° 0 mm 4 m/s 745 mmHg 87%
05:00 +1°C° 0 mm 5 m/s 744 mmHg 87%
06:00 +1°C° 0 mm 5 m/s 744 mmHg 89%
07:00 +1°C° 0 mm 5 m/s 743 mmHg 91%
08:00 +1°C° 0 mm 5 m/s 743 mmHg 92%
09:00 +2°C° 0 mm 6 m/s 743 mmHg 91%
10:00 +3°C° 0 mm 6 m/s 743 mmHg 89%
11:00 +3°C° 0 mm 7 m/s 742 mmHg 87%
12:00 +4°C° 0 mm 7 m/s 742 mmHg 84%
13:00 +4°C° 0 mm 7 m/s 742 mmHg 81%
14:00 +4°C° 0 mm 6 m/s 742 mmHg 78%
15:00 +3°C° 0 mm 6 m/s 742 mmHg 77%
16:00 +3°C° 0 mm 6 m/s 742 mmHg 76%
17:00 +2°C° 0 mm 6 m/s 741 mmHg 76%
18:00 +2°C° 0 mm 6 m/s 742 mmHg 80%
19:00 +1°C° 0 mm 5 m/s 742 mmHg 85%
20:00 0°C° 0 mm 5 m/s 742 mmHg 89%
21:00 0°C° 0.1 mm 5 m/s 742 mmHg 90%
22:00 -1°C° 0.1 mm 4 m/s 743 mmHg 92%
23:00 -1°C° 0.1 mm 4 m/s 743 mmHg 93%

Depois de amanhã, 5 Março, Sexta-feira

Tempo Temperatura Precipitação Vento Pressão Humidade
00:00 -1°C° 0.1 mm 4 m/s 743 mmHg 90%
01:00 -2°C° 0.1 mm 4 m/s 743 mmHg 88%
02:00 -3°C° 0.1 mm 4 m/s 743 mmHg 86%
03:00 -3°C° 0 mm 4 m/s 744 mmHg 84%
04:00 -3°C° 0 mm 4 m/s 744 mmHg 82%
05:00 -3°C° 0 mm 4 m/s 744 mmHg 80%
06:00 -4°C° 0 mm 4 m/s 744 mmHg 80%
07:00 -4°C° 0 mm 4 m/s 745 mmHg 79%
08:00 -4°C° 0 mm 4 m/s 745 mmHg 79%
09:00 -3°C° 0 mm 4 m/s 746 mmHg 70%
10:00 -2°C° 0 mm 4 m/s 746 mmHg 62%
11:00 -1°C° 0 mm 4 m/s 746 mmHg 53%
12:00 -1°C° 0 mm 5 m/s 747 mmHg 50%
13:00 0°C° 0 mm 5 m/s 747 mmHg 46%
14:00 0°C° 0 mm 5 m/s 747 mmHg 42%
15:00 0°C° 0 mm 5 m/s 747 mmHg 42%
16:00 0°C° 0 mm 5 m/s 747 mmHg 43%
17:00 0°C° 0 mm 5 m/s 748 mmHg 43%
18:00 -1°C° 0 mm 4 m/s 748 mmHg 47%
19:00 -2°C° 0 mm 4 m/s 749 mmHg 50%
20:00 -2°C° 0 mm 3 m/s 750 mmHg 54%
21:00 -4°C° 0 mm 3 m/s 750 mmHg 53%
22:00 -4°C° 0 mm 3 m/s 750 mmHg 52%
23:00 -4°C° 0 mm 3 m/s 751 mmHg 52%

6 Março, Sábado

Tempo Temperatura Precipitação Vento Pressão Humidade
00:00 -4°C° 0 mm 3 m/s 751 mmHg 55%
01:00 -4°C° 0 mm 3 m/s 752 mmHg 58%
02:00 -5°C° 0 mm 4 m/s 752 mmHg 61%
03:00 -5°C° 0 mm 4 m/s 752 mmHg 60%
04:00 -5°C° 0 mm 4 m/s 753 mmHg 59%
05:00 -5°C° 0 mm 4 m/s 753 mmHg 58%
06:00 -5°C° 0 mm 4 m/s 753 mmHg 57%
07:00 -5°C° 0 mm 4 m/s 754 mmHg 56%
08:00 -5°C° 0 mm 3 m/s 754 mmHg 54%
09:00 -4°C° 0 mm 4 m/s 755 mmHg 48%
10:00 -3°C° 0 mm 4 m/s 755 mmHg 42%
11:00 -2°C° 0 mm 4 m/s 755 mmHg 36%
12:00 -2°C° 0 mm 4 m/s 755 mmHg 37%
13:00 -1°C° 0 mm 4 m/s 755 mmHg 38%
14:00 -1°C° 0 mm 5 m/s 755 mmHg 38%
15:00 -1°C° 0 mm 5 m/s 755 mmHg 41%
16:00 -1°C° 0 mm 5 m/s 755 mmHg 43%
17:00 -1°C° 0 mm 5 m/s 754 mmHg 45%
18:00 -2°C° 0 mm 4 m/s 754 mmHg 50%
19:00 -3°C° 0 mm 4 m/s 754 mmHg 54%
20:00 -4°C° 0 mm 4 m/s 754 mmHg 58%
21:00 -4°C° 0 mm 4 m/s 754 mmHg 59%
22:00 -5°C° 0 mm 5 m/s 753 mmHg 59%
23:00 -4°C° 0 mm 6 m/s 753 mmHg 59%

7 Março, Domingo

Tempo Temperatura Precipitação Vento Pressão Humidade
00:00 -4°C° 0 mm 6 m/s 753 mmHg 57%
01:00 -4°C° 0 mm 6 m/s 752 mmHg 56%
02:00 -4°C° 0 mm 7 m/s 752 mmHg 54%
03:00 -4°C° 0 mm 7 m/s 751 mmHg 53%
04:00 -4°C° 0 mm 7 m/s 750 mmHg 51%
05:00 -4°C° 0 mm 7 m/s 750 mmHg 50%
06:00 -5°C° 0 mm 8 m/s 749 mmHg 51%
07:00 -5°C° 0 mm 8 m/s 749 mmHg 52%
08:00 -5°C° 0 mm 8 m/s 748 mmHg 53%
09:00 -4°C° 0 mm 8 m/s 748 mmHg 53%
10:00 -3°C° 0 mm 9 m/s 748 mmHg 54%
11:00 -2°C° 0 mm 10 m/s 748 mmHg 54%
12:00 -1°C° 0 mm 9 m/s 747 mmHg 56%
13:00 -1°C° 0 mm 9 m/s 747 mmHg 58%
14:00 -1°C° 0 mm 9 m/s 747 mmHg 60%
15:00 -1°C° 0 mm 9 m/s 746 mmHg 63%
16:00 -2°C° 0 mm 8 m/s 746 mmHg 66%
17:00 -2°C° 0 mm 8 m/s 746 mmHg 69%
18:00 -3°C° 0 mm 7 m/s 745 mmHg 72%
19:00 -3°C° 0 mm 7 m/s 745 mmHg 75%
20:00 -4°C° 0 mm 6 m/s 745 mmHg 79%
21:00 -4°C° 0 mm 6 m/s 745 mmHg 79%
22:00 -4°C° 0 mm 5 m/s 745 mmHg 80%
23:00 -4°C° 0 mm 5 m/s 745 mmHg 81%

8 Março, Segunda-feira

Tempo Temperatura Precipitação Vento Pressão Humidade
00:00 -4°C° 0 mm 5 m/s 745 mmHg 82%
01:00 -4°C° 0 mm 5 m/s 745 mmHg 83%
02:00 -4°C° 0 mm 5 m/s 744 mmHg 84%
03:00 -4°C° 0.1 mm 5 m/s 744 mmHg 84%
04:00 -4°C° 0.1 mm 6 m/s 743 mmHg 85%
05:00 -5°C° 0.1 mm 6 m/s 743 mmHg 85%
06:00 -4°C° 0.1 mm 6 m/s 743 mmHg 87%
07:00 -4°C° 0.1 mm 7 m/s 743 mmHg 88%
08:00 -4°C° 0.1 mm 7 m/s 742 mmHg 89%
09:00 -4°C° 0.2 mm 7 m/s 743 mmHg 85%
10:00 -4°C° 0.2 mm 7 m/s 743 mmHg 80%
11:00 -3°C° 0.2 mm 7 m/s 744 mmHg 76%
12:00 -3°C° 0 mm 7 m/s 744 mmHg 71%
13:00 -3°C° 0 mm 6 m/s 745 mmHg 66%
14:00 -2°C° 0 mm 5 m/s 745 mmHg 61%
15:00 -2°C° 0 mm 5 m/s 745 mmHg 59%
16:00 -2°C° 0 mm 4 m/s 746 mmHg 57%
17:00 -1°C° 0 mm 3 m/s 746 mmHg 55%
18:00 -2°C° 0.1 mm 3 m/s 747 mmHg 64%
19:00 -4°C° 0.1 mm 4 m/s 748 mmHg 73%
20:00 -4°C° 0.1 mm 4 m/s 748 mmHg 82%
21:00 -5°C° 0.1 mm 4 m/s 749 mmHg 79%
22:00 -7°C° 0.1 mm 4 m/s 750 mmHg 75%
23:00 -7°C° 0.1 mm 4 m/s 750 mmHg 71%
Mostrar mais

Necessitamos do seu Consentimento

A Meteoprog e os seus Fornecedores de Serviços podem armazenar e aceder a dados pessoais como cookies, identificadores do dispositivo ou outras tecnologias semelhantes existentes no seu dispositivo e processar estes dados para personalizar conteúdos e anúncios, assim como funcionalidades nas redes sociais e análise de tráfego.

  • Armazenar e/ou aceder a informações no seu dispositivo

    Os cookies, identificadores do dispositivo ou outras informações podem ser armazenados ou acedidos no seu dispositivo, para os fins acima indicados.

  • Anúncios e conteúdos personalizados, medição de anúncios e conteúdos, dados sobre o público-alvo e desenvolvimento de produtos

    Os anúncios e os conteúdos podem ser personalizados com base num perfil. Podem ser adicionados dados adicionais para uma maior personalização dos anúncios e dos conteúdos. A eficácia dos anúncios e dos conteúdos pode ser medida. Podem ser obtidas informações sobre o público que visualizou os anúncios e os conteúdos. Estes dados podem ser usados para desenvolver ou melhorar sistemas, softwares ou a experiência do utilizador.

Ao clicar em "Eu concordo”, permitirá o uso de cookies, identificadores do dispositivo e web beacons mencionados ou outras tecnologias semelhantes. As configurações do navegador do seu dispositivo podem ser alteradas.

Para certos fins, podem ser invocados interesses legítimos ao invés de consentimento. Pode ler mais informação sobre este assunto na nossa Política de Privacidade e Cookies.